SCP
0 0 0 0 0 0 0 0 0 0 0 0 0 0 0 0 0 0 0 0 0 0 0 0 0 0 0 0 0 0 0 0 0 0 0 0 0 0 0 0 0 0 0
0 0 0 0 0 0 0 0 0 0 0 0 0 0 0 0 0 0 0 0 0 0 0 0 0 0 0 0 0 0 0 0 0 0 0 0 0 0 0 0 0 0 0
0 0 0 0 0 0 0 0 0 0 0 0 0 0 0 0 0 0 0 0 0 0 0 0 0 0 0 0 0 0 0 0 0 0 0 0 0 0 0 0 0 0 0
0 0 0 0 0 0 0 0 0 0 0 0 0 0 0 0 0 0 0 0 0 0 0 0 0 0 0 0 0 0 0 0 0 0 0 0 0 0 0 0 0 0 0
0 0 0 0 0 0 0 0 0 0 0 0 0 0 0 0 0 0 0 0 0 0 0 0 0 0 0 0 0 0 0 0 0 0 0 0 0 0 0 0 0 0 0
0 0 0 0 0 0 0 0 0 0 0 0 0 0 0 0 0 0 0 0 0 0 0 0 0 0 0 0 0 0 0 0 0 0 0 0 0 0 0 0 0 0 0
0 0 0 0 0 0 0 0 0 0 0 0 0 0 0 0 0 0 0 0 0 0 0 0 0 0 0 0 0 0 0 0 0 0 0 0 0 0 0 0 0 0 0
0 0 0 0 0 0 0 0 0 0 0 0 0 0 0 0 0 0 0 0 0 0 0 0 0 0 0 0 -0 0 0 0 0 0 0 0 0 0 0 0 0 0 0
0 0 0 0 0 0 0 0 0 0 0 0 0 0 0 0 0 0 0 0 0 0 0 0 0 0 0 -0 0 0 0 0 0 0 0 0 0 0 0 0 0 0 0
0 0 0 0 0 0 0 0 0 0 0 0 0 0 0 0 0 0 0 0 0 0 0 0 0 0 0 0 0 0 0 0 0 0 0 0 0 0 0 0 0 0 0
0 0 0 0 0 0 0 0 0 0 0 0 0 0 0 0 0 0 0 0 0 0 0 0 0 0 0 0 0 0 0 0 0 0 0 0 0 0 0 0 0 0 0
0 0 0 0 0 0 0 0 0 0 0 0 0 0 0 0 0 0 0 0 0 0 0 0 0 0 0 0 0 0 0 0 0 0 0 0 0 0 0 0 0 0 0
0 0 0 0 0 0 0 0 0 0 0 0 0 0 0 0 0 0 0 0 0 0 0 0 0 0 0 0 0 0 0 0 0 0 0 0 0 0 0 0 0 0 0
0 0 0 0 0 0 0 0 0 0 0 0 0 0 0 0 0 0 0 0 0 0 0 0 0 0 0 0 0 0 0 0 0 0 0 0 0 0 0 0 0 0 0
0 0 0 0 0 0 0 0 0 0 0 0 0 0 0 0 0 0 0 0 0 0 0 0 0 0 0 0 0 0 0 0 0 0 0 0 0 0 0 0 0 0 0
0 0 0 0 0 0 0 0 0 0 0 0 0 0 0 0 0 0 0 0 0 0 0 0 0 0 0 0 0 0 0 0 0 0 0 0 0 0 0 0 0 0 0
0 0 0 0 0 0 0 0 0 0 0 0 0 0 0 0 0 0 0 0 0 0 0 0 0 0 0 0 0 0 0 0 0 0 0 0 0 0 0 0 0 0 0
0 0 0 0 0 0 0 0 0 0 0 0 0 0 0 0 0 0 0 0 0 0 0 0 0 0 0 0 0 0 0 0 0 0 0 0 0 0 0 0 0 0 0
0 0 0 0 0 0 0 0 0 0 0 0 0 0 0 0 0 0 0 0 0 0 0 0 0 0 0 0 0 0 0 0 0 0 0 0 0 0 0 0 0 0 0
0 0 0 0 0 0 0 0 0 0 0 0 0 0 0 0 0 0 0 0 0 0 0 0 0 0 0 -0 -0 0 0 0 0 0 0 0 0 0 0 0 0 0 0
0 0 0 0 0 0 0 0 0 0 0 0 0 0 0 0 0 0 0 0 0 0 0 0 0 0 -0 -0 -0 0 0 0 0 0 0 0 0 0 0 0 0 0 0
0 0 0 0 0 0 0 0 0 0 0 0 0 0 0 0 0 0 0 0 0 0 0 0 0 0 -0 -0 0 0 0 0 0 0 0 0 0 0 0 0 0 0 0
0 0 0 0 0 0 0 0 0 0 0 0 0 0 0 0 0 0 0 0 0 0 0 0 0 0 0 0 0 0 0 0 0 0 0 0 0 0 0 0 0 0 0
0 0 0 0 0 0 0 0 0 0 0 0 0 0 0 0 0 0 0 0 0 0 0 0 0 0 0 0 0 0 0 0 0 0 0 0 0 0 0 0 0 0 0
0 0 0 0 0 0 0 0 0 0 0 0 0 0 0 0 0 0 0 0 0 0 0 0 0 0 0 0 0 0 0 0 0 0 0 0 0 0 0 0 0 0 0
0 0 0 0 0 0 0 0 0 0 0 0 0 0 0 0 -0 0 0 0 0 0 0 0 0 0 0 0 0 0 0 0 0 0 0 0 0 0 0 0 0 0 0
Wind_Speed
13 13 14 13 13 13 12 12 11 10 9 9 9 9 9 9 8 8 8 8 8 8 7 8 8 7 5 4 4 4 4 4 3 3 2 3 4 6 5 6 6 6 1
13 14 14 13 13 13 12 11 10 9 9 9 9 9 8 8 7 8 8 8 7 8 7 7 7 5 5 5 4 5 5 4 4 4 3 3 3 4 5 7 5 5 5
14 14 14 13 13 12 11 10 10 10 9 8 8 8 8 8 7 7 7 7 7 7 7 7 6 6 5 5 5 4 3 3 3 3 3 3 3 3 5 5 5 4 6
13 13 13 12 12 11 10 10 9 9 9 8 8 8 8 7 7 6 6 6 6 6 6 6 6 6 6 5 3 3 4 3 2 3 3 3 3 3 4 5 5 4 4
12 12 12 11 11 10 10 10 9 9 9 9 9 8 8 8 7 6 5 6 5 5 5 5 7 6 6 6 6 6 6 5 4 4 4 4 4 5 5 5 6 6 4
11 12 11 10 10 10 10 9 9 9 9 9 9 9 9 9 8 10 7 5 4 4 4 4 4 3 2 3 3 5 6 7 7 7 5 6 6 6 6 7 7 7 5
11 11 11 10 10 9 9 9 9 9 9 8 8 9 10 9 8 8 9 4 4 4 4 3 3 4 3 5 3 8 8 9 7 7 8 8 8 7 8 8 7 8 7
10 10 10 10 10 9 9 8 8 7 7 7 7 8 8 9 7 7 9 2 4 4 4 4 4 5 7 8 8 5 3 0 3 5 6 7 7 8 8 8 8 8 7
10 9 9 9 9 8 8 7 7 6 6 6 6 6 7 8 8 8 12 1 3 3 3 5 6 5 7 8 8 6 5 3 4 7 7 9 10 9 8 7 7 6 6
10 9 8 8 7 7 7 6 6 5 5 5 6 6 6 7 7 8 12 3 3 2 3 4 6 6 8 9 8 7 7 7 7 4 5 8 9 8 10 7 7 7 6
9 9 8 7 7 7 6 5 4 5 5 5 5 5 5 6 6 6 10 6 5 4 3 3 6 6 6 7 8 6 7 8 8 6 5 4 3 2 2 3 4 5 6
8 8 7 6 6 6 5 5 4 4 4 4 4 4 4 5 5 5 4 5 7 5 5 5 6 6 5 5 5 6 9 10 6 5 4 4 5 5 5 5 5 5 5
8 7 7 6 5 5 4 4 4 2 2 3 3 3 4 4 5 4 2 2 4 4 4 5 4 5 7 4 1 5 8 5 5 5 5 5 5 5 5 4 3 3 5
8 7 6 5 5 5 3 3 3 3 3 3 3 4 4 4 5 4 2 2 5 3 1 3 8 8 6 3 3 3 4 5 6 6 5 5 4 4 4 4 5 5 4
7 6 5 5 5 4 5 6 6 8 8 6 5 4 4 6 7 7 7 7 8 7 8 4 2 2 3 4 4 4 4 4 5 5 5 5 5 5 5 4 5 5 5
6 5 4 4 4 4 5 6 7 7 5 5 6 6 5 6 4 4 4 4 5 8 8 3 4 5 5 5 5 5 5 5 6 6 6 6 6 6 6 5 5 5 5
5 4 3 3 3 3 3 4 6 5 3 1 1 2 4 4 2 2 3 4 6 8 5 4 4 5 5 6 6 6 6 6 6 6 6 6 6 6 6 6 6 6 6
5 5 2 3 2 2 2 2 3 4 6 6 5 3 2 1 0 2 5 7 5 2 3 4 4 5 5 5 6 6 6 6 5 6 5 6 6 6 6 6 6 6 7
4 4 3 2 2 2 2 2 2 3 3 3 5 7 5 5 6 4 6 3 4 4 4 4 5 5 5 5 5 5 5 5 6 6 5 6 6 6 6 7 6 5 6
4 4 0 2 2 3 2 2 2 2 2 2 2 3 3 3 2 2 0 3 3 4 5 5 5 5 5 5 5 5 5 5 5 5 5 5 6 6 7 7 7 7 6
5 6 5 3 2 2 2 2 2 2 2 2 4 6 5 3 2 2 2 3 4 5 5 5 5 5 5 5 6 7 7 6 6 6 6 6 6 6 6 6 7 7 6
4 5 4 3 3 3 2 3 3 3 3 2 3 5 3 4 2 2 3 3 3 3 4 5 5 5 5 6 6 6 7 7 7 7 7 7 6 6 7 7 7 7 7
4 4 4 3 4 4 3 3 3 2 2 2 1 1 1 2 2 2 3 3 3 3 3 4 4 5 6 5 5 6 7 8 8 9 9 8 7 7 6 7 7 7 7
4 4 4 5 4 4 4 3 3 2 2 2 1 1 1 1 2 2 2 2 2 2 3 3 4 5 7 6 5 6 8 9 10 9 10 9 8 7 7 7 7 8 7
5 4 4 4 4 4 3 3 3 2 2 1 1 0 0 1 1 1 1 1 1 2 3 3 3 4 6 6 7 8 8 7 7 9 10 9 8 8 8 8 7 7 7
4 5 4 4 4 4 4 4 3 3 2 2 1 1 0 1 0 1 1 1 1 1 1 2 3 4 5 5 7 7 6 7 8 9 10 8 7 7 9 7 8 7 7
Wind_Direction
80 82 84 84 85 85 85 85 85 85 86 88 89 87 85 82 79 79 84 86 83 82 79 76 66 47 46 51 50 45 36 18 11 49 35 46 347 327 337 324 311 303 310
87 87 88 89 89 88 86 86 86 85 84 83 85 86 88 88 86 86 87 85 83 80 76 72 69 68 58 41 34 41 43 17 356 11 358 11 346 327 330 311 319 329 322
92 92 91 89 89 88 87 86 85 84 82 81 84 86 87 89 87 84 85 84 80 76 72 69 65 58 50 48 24 29 27 26 358 337 347 356 328 353 321 316 328 318 309
95 95 94 92 91 91 91 89 86 86 87 86 85 85 86 85 85 87 86 84 81 78 71 66 56 45 34 21 24 23 3 338 335 317 336 343 337 347 317 332 334 334 321
102 100 99 100 100 98 96 93 91 89 89 88 89 87 83 75 55 51 84 84 80 80 77 69 64 50 31 0 355 357 347 337 337 340 343 347 360 347 344 337 333 326 323
107 105 105 105 103 101 100 97 94 89 86 85 83 81 74 65 37 17 2 77 72 69 67 69 107 125 105 216 265 300 317 324 340 333 344 354 351 348 346 329 334 331 333
114 113 114 113 107 104 101 97 94 92 89 86 84 82 80 66 37 20 357 359 67 57 46 31 26 54 329 354 242 224 235 236 259 306 325 336 336 347 333 328 337 328 324
116 114 113 110 107 105 102 99 99 96 94 91 86 84 84 69 35 12 334 316 63 58 43 28 14 16 28 347 326 329 336 280 238 264 310 314 325 330 319 307 303 297 290
117 116 114 113 112 110 105 103 101 101 100 99 90 85 85 82 38 6 331 34 77 71 54 41 5 13 37 340 312 335 352 356 206 235 267 281 292 288 287 297 310 313 326
113 111 110 109 106 102 100 101 101 101 101 97 88 80 76 74 53 11 338 340 61 65 92 113 87 19 358 336 325 346 353 353 341 321 258 247 252 242 228 259 305 321 331
114 112 108 105 102 98 97 98 105 101 93 87 92 93 82 67 87 37 1 348 9 11 32 50 70 32 355 335 317 340 345 316 307 314 320 322 314 302 272 287 313 313 326
117 113 109 103 97 98 99 97 91 97 120 115 107 109 106 101 60 61 17 4 335 347 12 25 49 11 338 329 342 353 314 294 302 329 337 342 345 352 354 340 331 317 305
122 115 111 102 88 89 100 110 114 120 101 97 98 98 96 99 124 173 206 262 300 328 24 29 341 306 286 240 220 301 298 313 339 338 340 340 344 344 318 309 307 297 282
129 123 116 110 107 97 88 84 76 65 69 80 75 75 85 88 52 36 26 172 209 233 281 189 222 246 261 293 279 284 326 354 335 329 332 331 329 330 328 340 336 330 322
136 129 121 111 99 101 78 47 41 54 34 15 38 44 42 59 44 8 345 1 356 5 327 308 320 341 338 358 353 354 341 342 337 339 331 329 334 339 336 338 330 327 336
144 143 135 124 121 125 128 118 62 58 74 51 27 5 54 53 23 360 347 330 316 313 304 332 2 355 354 355 349 347 348 355 347 333 332 334 336 333 333 336 335 338 339
141 138 136 132 136 133 131 131 135 133 133 113 62 15 4 10 354 320 295 286 281 290 297 6 5 358 353 351 350 349 349 353 338 326 334 335 333 330 332 335 340 342 339
153 144 164 147 136 132 127 121 127 140 151 151 148 133 120 118 127 287 281 273 251 262 4 11 3 360 357 353 351 350 344 341 340 334 337 336 333 329 330 333 340 349 336
163 148 154 142 149 135 131 121 109 112 114 121 134 144 169 180 195 233 271 306 12 14 11 11 8 2 357 351 350 348 342 339 344 330 335 336 332 327 331 334 335 339 313
132 81 224 178 149 139 141 130 124 125 120 112 106 90 136 195 196 147 47 12 7 17 10 9 9 1 354 348 348 348 344 344 343 336 343 337 333 329 330 329 330 329 331
149 143 187 208 153 139 139 133 131 133 124 118 92 68 349 327 41 31 23 25 19 15 15 357 353 3 1 354 358 352 346 350 354 350 343 339 335 332 327 326 329 332 338
151 158 169 149 138 130 129 141 142 132 128 128 128 137 209 273 27 28 30 31 29 20 20 359 350 6 11 3 356 345 350 356 356 352 341 335 332 332 333 334 339 340 343
161 155 148 142 133 135 181 151 144 142 140 139 116 95 128 35 33 33 32 27 22 18 13 3 353 10 14 3 349 343 358 359 346 336 328 328 330 332 335 340 340 342 353
155 160 151 148 153 162 157 155 159 149 138 129 125 71 52 47 24 31 8 17 16 15 11 8 8 12 6 358 344 2 23 358 333 320 323 319 322 334 339 341 342 351 352
162 160 163 165 165 164 162 165 162 159 159 161 172 165 53 39 45 47 23 24 2 11 12 4 6 11 5 2 7 16 13 339 321 318 310 307 327 343 341 344 350 354 359
168 165 171 169 176 177 178 180 176 182 185 186 198 208 306 311 349 24 12 357 337 25 2 10 23 11 358 3 28 13 347 330 322 311 300 306 335 359 348 341 351 356 7